Location: Alexandria
(38.8050°N, 77.0470°W)
Time: 03:20:34
(UTC-05:00)

Envisat - Pass Details

Date: 18 February 2018
Orbit: 764 x 766 km, 98.2° (Epoch: 23 February)

Event Time Altitude Azimuth Distance (km) Brightness Sun altitude
Exits shadow 20:43:03 - 204° (SSW) 3,069 6.2 -34.3°
Reaches altitude 10° 20:45:27 10° 218° (SW) 2,295 5.7 -34.8°
Maximum altitude 20:49:13 21° 267° (W) 1,671 5.3 -35.5°
Drops below altitude 10° 20:53:01 10° 315° (NW) 2,307 6.1 -36.2°
Sets 20:55:53 0° 331° (NNW) 3,238 6.8 -36.8°
